Regional Weather Roundup
Issued by NWS

Home | Current Version | Previous Version | Graphics & Text | Print | Product List | Glossary On
Versions: 1 2 3 4 5 6 7 8 9 10 11 12 13 14 15 16 17 18 19 20 21 22 23 24 25 26 27 28 29 30 31 32 33 34 35 36 37 38 39 40 41 42 43 44 45 46 47 48 49 50
000
ASUS43 KLMK 011310
RWRKY
KENTUCKY REGIONAL WEATHER ROUNDUP
NATIONAL WEATHER SERVICE LOUISVILLE KY
900 AM EDT FRI AUG 01 2014

NOTE "FAIR" INDICATES FEW OR NO CLOUDS BELOW 12,000 FEET
WITH NO SIGNIFICANT WEATHER AND/OR OBSTRUCTIONS TO VISIBILITY.

KYZ001>023-026-027-061>063-070>075-011400-
WESTERN AND SOUTH CENTRAL KENTUCKY

CITY           SKY/WX    TMP DP  RH WIND       PRES   REMARKS
PADUCAH        MOSUNNY   71  65  81 CALM      30.08S
HENDERSON      MOSUNNY   68  64  88 CALM      30.09S
OWENSBORO      SUNNY     70  65  84 CALM      30.10S FOG
HOPKINSVILLE   SUNNY     69  66  91 NE3       30.08S
BOWLING GREEN  SUNNY     69  61  75 E3        30.10S
GLASGOW        SUNNY     66  63  91 CALM      30.11S
$$

KYZ024-025-028>034-038-045-046-053-011400-
NORTH CENTRAL KENTUCKY

CITY           SKY/WX    TMP DP  RH WIND       PRES   REMARKS
LOUISVILLE/SDF MOSUNNY   72  62  71 CALM      30.11R
LOUISVILLE/LOU SUNNY     70  61  73 CALM      30.12R
FORT KNOX      SUNNY     68  62  81 CALM      30.10S
$$

KYZ035>037-039>044-047>052-055>060-089>105-011400-
NORTHEAST KENTUCKY

CITY           SKY/WX    TMP DP  RH WIND       PRES   REMARKS
LEXINGTON      SUNNY     72  64  76 CALM      30.13R
COVINGTON      MOSUNNY   71  64  78 CALM      30.13R
FRANKFORT      SUNNY     67  62  84 CALM      30.11S
$$

KYZ054-064>069-076>088-106>120-011400-
SOUTHEAST KENTUCKY

CITY           SKY/WX    TMP DP  RH WIND       PRES   REMARKS
JACKSON        SUNNY     69  61  75 CALM      30.14R
LONDON         SUNNY     68  62  81 E3        30.14R
SOMERSET       SUNNY     68  63  83 CALM      30.13S
MIDDLESBORO    MOSUNNY   64  62  91 CALM      30.14S
MONTICELLO     SUNNY     68  64  86 CALM      30.13S
$$




USA.gov is the U.S. government's official web portal to all federal, state and local government web resources and services.